Location: Exeidioux
(45.6312°N, 1.6819°E)
Time: 15:03:44
(UTC+00:00)

Cosmos 2360 Rocket - Pass Details

Date: 03 March 2021
Orbit: 832 x 846 km, 71.0° (Epoch: 16 April)

Event Time Altitude Azimuth Distance (km) Brightness Sun altitude
Rises 20:20:43 0° 237° (WSW) 3,382 5.8 -27.9°
Reaches altitude 10° 20:23:28 10° 248° (WSW) 2,453 5.2 -28.4°
Maximum altitude 20:28:21 30° 309° (NW) 1,481 4.0 -29.2°
Drops below altitude 10° 20:33:17 10° 9° (N) 2,473 4.8 -30.0°
Sets 20:36:04 0° 21° (NNE) 3,414 5.4 -30.4°
